Regional Weather Roundup
Issued by NWS Sioux Falls, SD

Home | Current Version | Previous Version | Text Only | Print | Product List | Glossary On
Versions: 1 2 3 4 5 6 7 8 9 10 11 12 13 14 15 16 17 18 19 20 21 22 23 24 25 26 27 28 29 30 31 32 33 34 35 36 37 38 39 40 41 42 43 44 45 46 47 48 49 50
000
ASUS43 KFSD 171910
RWRFSD

WEATHER ROUNDUP FOR SE SOUTH DAKOTA/SW MINNESOTA/NW IOWA
NATIONAL WEATHER SERVICE SIOUX FALLS SD
100 PM CST FRI NOV 17 2017

NOTE: "FAIR" INDICATES FEW OR NO CLOUDS BELOW 12,000 FEET WITH NO
SIGNIFICANT WEATHER AND OR OBSTRUCTIONS TO VISIBILITY.


SDZ038>040-050-052>070-172000-
SOUTHEAST SOUTH DAKOTA

CITY           SKY/WX    TMP DP  RH WIND       PRES   REMARKS
BROOKINGS      CLOUDY    44  35  70 N7        29.58F
CHAMBERLAIN    CLOUDY    46  37  68 N6        29.63F
HURON          CLOUDY    46  33  60 N13       29.61F
MADISON        FAIR      43  39  87 NE9       29.59S
MITCHELL       CLOUDY    45  35  68 N15       29.63R
SIOUX FALLS    PTSUNNY   50  39  66 N12       29.59R
WINNER         FAIR      47  36  65 N8        29.62F
YANKTON        CLOUDY    45  36  70 NW17      29.57F
$$

MNZ071-072-080-081-089-090-097-098-172000-
SOUTHWEST MINNESOTA

CITY           SKY/WX    TMP DP  RH WIND       PRES   REMARKS
FAIRMONT       CLOUDY    43  37  81 S9        29.59F
JACKSON        CLOUDY    45  37  76 CALM      29.57S
LUVERNE        PTSUNNY   48  37  66 N7        29.57F
MARSHALL       LGT RAIN  44  34  67 N9        29.59F
MONTEVIDEO     MOSUNNY   43  36  75 NE8       29.61F
PIPESTONE      LGT RAIN  45  36  70 NE9       29.58S
REDWOOD FALLS  PTSUNNY   47  35  63 NW8       29.60F
WINDOM           N/A     48  34  57 CALM      29.57F
WORTHINGTON    CLOUDY    50  42  74 NW7       29.57S
$$

IAZ001>003-012>014-020>022-031-032-NEZ013-014-SDZ071-172000-
NORTHWEST IOWA

CITY           SKY/WX    TMP DP  RH WIND       PRES   REMARKS
CHEROKEE       CLOUDY    55  49  81 SW7       29.54S
DENISON        CLOUDY    52  52 100 S10G17    29.55R
ESTHERVILLE    CLOUDY    44  40  85 SE8       29.57F
LE MARS        CLOUDY    57  46  67 W10G17    29.54S
ORANGE CITY    CLOUDY    55  46  71 W14       29.55S
SHELDON        CLOUDY    54  45  71 W10       29.54S
SIOUX CITY     CLOUDY    58  47  66 W9        29.54F
SPENCER        CLOUDY    51  44  77 SE9       29.55F
STORM LAKE     CLOUDY    52  48  87 S10       29.54S
$$

ABBREVIATIONS USED IN REMARKS
   TC - TEMPERATURE IN CELSIUS
  WCI - WIND CHILL INDEX
   HX - HEAT INDEX
  VSB - VISIBILITY




USA.gov is the U.S. government's official web portal to all federal, state and local government web resources and services.